Weather History for Eagle Creek, IN

Change the Weather History Date:

Wednesday, March 20, 2013

  Actual Average Record
Temperature  
Mean Temperature 27 °F 44 °F  
Max Temperature 32 °F 53 °F 83 °F (2012)
Min Temperature 22 °F 35 °F 22 °F (2013)
Degree Days  
Heating Degree Days 38 21  
Month to date heating degree days 611 492  
Since 1 July heating degree days 4725 4617  
Cooling Degree Days 0 0  
Month to date cooling degree days 0 0  
Year to date cooling degree days 0 0  
Moisture  
Dew Point 13 °F    
Average Humidity 60    
Maximum Humidity 74    
Minimum Humidity 46    
Precipitation  
Precipitation 0.00 in 0.13 in 0.96 in (1998)
Month to date precipitation 0.92 1.82  
Year to date precipitation 7.86 6.16  
Sea Level Pressure  
Sea Level Pressure 30.07 in    
Wind  
Wind Speed 13 mph (WNW)    
Max Wind Speed 23 mph    
Max Gust Speed 32 mph    
Visibility 10 miles    
Events      
T = Trace of Precipitation, MM = Missing Value Source: NWS Daily Summary

Daily Weather History Graph

Daily Weather History Graph

Search for Another Location

Airport:

Trip Planner

Search our weather history database for the weather conditions in past years. The results will help you decide how hot, cold, wet, or windy it might be!

Date:

Astronomy

Mar. 20, 2013 Rise Set
Actual Time 7:48 AM EDT 7:57 PM EDT
Civil Twilight 7:21 AM EDT 8:24 PM EDT
Nautical Twilight 6:49 AM EDT 8:56 PM EDT
Astronomical Twilight 6:17 AM EDT 9:28 PM EDT
Moon 1:32 PM EDT (3/20) 3:26 AM EDT (3/20)
Length of Visible Light 13h 03m
Length of Day
12h 09m
First Quarter, 59% of the Moon is Illuminated
Mar 20
First Quarter
Mar 27
Full
Apr 3
Last Quarter
Apr 10
New
Apr 18
First Quarter

Hourly Weather History & Observations

Time (EDT) Temp. Windchill Dew Point Humidity Pressure Visibility Wind Dir Wind Speed Gust Speed Precip Events Conditions
12:53 AM 32.0 °F 26.4 °F 17.1 °F 54% 30.12 in 10.0 mi West 5.8 mph - N/A   Clear
1:53 AM 30.9 °F 24.3 °F 18.0 °F 59% 30.11 in 10.0 mi Variable 6.9 mph - N/A   Clear
2:53 AM 30.0 °F 26.5 °F 17.1 °F 59% 30.10 in 10.0 mi WSW 3.5 mph - N/A   Clear
3:53 AM 28.0 °F 24.2 °F 17.1 °F 63% 30.08 in 10.0 mi WSW 3.5 mph - N/A   Clear
4:53 AM 27.0 °F 20.5 °F 18.0 °F 69% 30.06 in 10.0 mi WNW 5.8 mph - N/A   Clear
5:53 AM 27.0 °F 18.0 °F 18.0 °F 69% 30.06 in 10.0 mi West 9.2 mph - N/A   Clear
6:53 AM 26.1 °F 19.4 °F 18.0 °F 71% 30.06 in 10.0 mi Variable 5.8 mph - N/A   Partly Cloudy
7:53 AM 25.0 °F 13.1 °F 17.1 °F 72% 30.07 in 10.0 mi WNW 13.8 mph - N/A   Clear
8:53 AM 26.1 °F 16.8 °F 18.0 °F 71% 30.08 in 10.0 mi WNW 9.2 mph - N/A   Mostly Cloudy
9:49 AM 26.6 °F 13.4 °F 15.8 °F 64% 30.06 in 10.0 mi WNW 18.4 mph 23.0 mph N/A   Scattered Clouds
9:53 AM 26.1 °F 12.3 °F 15.1 °F 63% 30.09 in 10.0 mi WNW 19.6 mph 25.3 mph N/A   Partly Cloudy
10:53 AM 27.0 °F 14.3 °F 12.9 °F 56% 30.09 in 10.0 mi West 17.3 mph 23.0 mph N/A   Clear
11:53 AM 28.0 °F 15.7 °F 14.0 °F 56% 30.10 in 10.0 mi WNW 17.3 mph 24.2 mph N/A   Scattered Clouds
12:53 PM 28.0 °F 16.5 °F 12.9 °F 53% 30.09 in 10.0 mi West 15.0 mph 25.3 mph N/A   Mostly Cloudy
1:53 PM 27.0 °F 13.9 °F 10.9 °F 51% 30.09 in 10.0 mi WNW 18.4 mph 24.2 mph N/A   Partly Cloudy
2:53 PM 27.0 °F 14.3 °F 10.9 °F 51% 30.07 in 10.0 mi WNW 17.3 mph 27.6 mph N/A   Mostly Cloudy
3:53 PM 27.0 °F 13.2 °F 10.0 °F 49% 30.05 in 10.0 mi WNW 20.7 mph 29.9 mph N/A   Mostly Cloudy
4:53 PM 27.0 °F 13.9 °F 9.0 °F 47% 30.06 in 10.0 mi WNW 18.4 mph 28.8 mph N/A   Overcast
5:53 PM 27.0 °F 13.9 °F 9.0 °F 47% 30.05 in 10.0 mi WNW 18.4 mph 28.8 mph N/A   Mostly Cloudy
6:53 PM 27.0 °F 15.2 °F 9.0 °F 47% 30.05 in 10.0 mi WNW 15.0 mph 24.2 mph N/A   Overcast
7:53 PM 26.1 °F 12.7 °F 8.1 °F 47% 30.06 in 10.0 mi WNW 18.4 mph 26.5 mph N/A   Overcast
8:53 PM 25.0 °F 13.1 °F 9.0 °F 51% 30.05 in 10.0 mi WNW 13.8 mph - N/A   Partly Cloudy
9:53 PM 24.1 °F 13.1 °F 10.0 °F 55% 30.06 in 10.0 mi NW 11.5 mph 21.9 mph N/A   Overcast
10:53 PM 23.0 °F 11.1 °F 10.0 °F 58% 30.05 in 10.0 mi NW 12.7 mph - N/A   Partly Cloudy
11:53 PM 21.9 °F 11.0 °F 12.0 °F 66% 30.05 in 10.0 mi WNW 10.4 mph - N/A   Scattered Clouds